N0BHC Weather Reports


Display with metric or nautical units.
time (UTC)temp
F
wind
direction
speed
MPH
gust
MPH
rain 1hr
in
rain 24hr
in
rain mn
in
humidity
%
barometer
mb
20190620013156 71 110 3.0 6.0 0.00 0.00 0.00 56 1008.4
20190620013000 71 110 3.0 10.0 0.00 0.00 0.00 56 1008.4
20190620011500 71 92 3.0 8.0 0.00 0.00 0.00 55 1008.5
20190620011156 71 112 1.0 3.0 0.00 0.00 0.00 55 1008.5
20190620005959 71 129 1.0 9.0 0.00 0.00 0.00 54 1008.5
20190620004500 71 105 1.0 9.0 0.00 0.00 0.00 54 1008.5
20190620004156 71 154 2.0 3.0 0.00 0.00 0.00 54 1008.6
20190620003157 72 125 5.0 6.0 0.00 0.00 0.00 54 1008.6
20190620003001 72 125 4.0 10.0 0.00 0.00 0.00 54 1008.6
20190620001459 72 100 3.0 10.0 0.00 0.00 0.00 54 1008.6
20190620001157 72 137 3.0 7.0 0.00 0.00 0.00 54 1008.5
20190620000156 72 86 3.0 6.0 0.00 0.00 0.00 54 1008.5
20190619235959 72 86 3.0 7.0 0.00 0.00 0.00 54 1008.5
20190619234500 72 139 2.0 9.0 0.00 0.00 0.00 53 1008.5
20190619233000 72 182 2.0 12.0 0.00 0.00 0.00 52 1008.7
20190619231459 73 93 2.0 9.0 0.00 0.00 0.00 52 1008.7
20190619230000 73 122 3.0 13.0 0.00 0.00 0.00 51 1008.7
20190619224500 73 181 5.0 14.0 0.00 0.00 0.00 51 1008.7
20190619223000 73 122 3.0 14.0 0.00 0.00 0.00 52 1008.8
20190619221500 73 132 4.0 10.0 0.00 0.00 0.00 52 1008.9
20190619221158 73 150 6.0 7.0 0.00 0.00 0.00 53 1008.9
20190619215959 73 122 5.0 12.0 0.00 0.00 0.00 53 1009.0
20190619214459 73 130 3.0 9.0 0.00 0.00 0.00 54 1009.1
20190619213157 74 53 2.0 7.0 0.00 0.00 0.00 53 1009.1
20190619213000 74 53 2.0 13.0 0.00 0.00 0.00 53 1009.1
20190619211459 74 159 4.0 15.0 0.00 0.00 0.00 53 1009.2
20190619211157 73 76 5.0 5.0 0.00 0.00 0.00 55 1009.2
20190619210000 73 81 3.0 10.0 0.00 0.00 0.00 54 1009.4
20190619204459 73 356 1.0 10.0 0.00 0.00 0.00 55 1009.4
20190619203157 74 141 7.0 9.0 0.00 0.00 0.00 53 1009.5
20190619203000 74 141 6.0 13.0 0.00 0.00 0.00 53 1009.5
20190619201459 74 211 6.0 14.0 0.00 0.00 0.00 52 1009.5
20190619195959 74 76 6.0 13.0 0.00 0.00 0.00 55 1009.7
20190619195157 75 105 5.0 6.0 0.00 0.00 0.00 53 1009.8
20190619194500 75 159 4.0 12.0 0.00 0.00 0.00 54 1009.8
20190619194156 74 54 2.0 3.0 0.00 0.00 0.00 54 1009.9
20190619193156 73 146 7.0 9.0 0.00 0.00 0.00 55 1009.9
20190619193000 73 146 7.0 10.0 0.00 0.00 0.00 55 1009.9
20190619192202 73 190 2.0 7.0 0.00 0.00 0.00 56 1010.0
20190619191459 73 40 5.0 12.0 0.00 0.00 0.00 57 1010.1
20190619191158 73 132 5.0 8.0 0.00 0.00 0.00 57 1010.1
20190619190156 72 38 3.0 5.0 0.00 0.00 0.00 58 1010.2
20190619190000 72 38 4.0 9.0 0.00 0.00 0.00 58 1010.2
20190619184500 71 66 5.0 12.0 0.00 0.00 0.00 59 1010.5
20190619183157 72 76 5.0 7.0 0.00 0.00 0.00 58 1010.7
20190619183000 72 76 5.0 9.0 0.00 0.00 0.00 58 1010.7
20190619181500 71 115 5.0 8.0 0.00 0.00 0.00 58 1010.7
20190619180157 72 23 6.0 6.0 0.00 0.00 0.00 58 1010.8
20190619180000 72 23 6.0 15.0 0.00 0.00 0.00 58 1010.8
20190619174459 71 47 3.0 9.0 0.00 0.00 0.00 59 1011.1
20190619173157 71 94 5.0 8.0 0.00 0.00 0.00 62 1011.2
20190619173001 71 94 4.0 12.0 0.00 0.00 0.00 62 1011.2
20190619171500 71 27 3.0 9.0 0.00 0.00 0.00 61 1011.2
20190619171157 70 46 5.0 7.0 0.00 0.00 0.00 60 1011.3
20190619170157 70 184 6.0 7.0 0.00 0.00 0.00 61 1011.3
20190619170000 70 184 6.0 9.0 0.00 0.00 0.00 61 1011.3
20190619165157 70 57 5.0 6.0 0.00 0.00 0.00 62 1011.3
20190619164500 70 71 3.0 8.0 0.00 0.00 0.00 62 1011.4
20190619164156 70 49 6.0 7.0 0.00 0.00 0.00 62 1011.3
20190619163156 69 158 2.0 5.0 0.00 0.00 0.00 63 1011.4
20190619163000 69 158 2.0 8.0 0.00 0.00 0.00 63 1011.4
20190619161500 69 97 5.0 9.0 0.00 0.00 0.00 65 1011.6
20190619161157 69 53 3.0 6.0 0.00 0.00 0.00 64 1011.5
20190619160156 69 140 2.0 5.0 0.00 0.00 0.00 66 1011.6
20190619160000 69 140 2.0 9.0 0.00 0.00 0.00 66 1011.6
20190619155158 69 56 5.0 7.0 0.00 0.00 0.00 66 1011.7
20190619154500 68 62 6.0 9.0 0.00 0.00 0.00 67 1011.8
20190619154157 68 50 2.0 3.0 0.00 0.00 0.00 68 1011.9
20190619153157 68 39 2.0 3.0 0.00 0.00 0.00 71 1012.0
20190619153001 68 39 2.0 12.0 0.00 0.00 0.00 71 1012.0
20190619151500 68 192 2.0 7.0 0.00 0.00 0.00 71 1012.0
20190619150157 67 41 3.0 6.0 0.00 0.00 0.00 75 1012.1
20190619150000 67 41 3.0 8.0 0.00 0.00 0.00 75 1012.1
20190619144500 66 70 1.0 6.0 0.00 0.00 0.00 80 1012.3
20190619143001 65 258 2.0 6.0 0.00 0.00 0.00 85 1012.3
20190619141500 64 54 3.0 7.0 0.00 0.00 0.00 88 1012.6
20190619140000 63 157 3.0 6.0 0.00 0.00 0.00 90 1012.6
20190619134501 62 53 1.0 6.0 0.00 0.00 0.00 90 1012.6
20190619133001 61 51 1.0 5.0 0.00 0.00 0.00 90 1012.7
20190619131500 60 33 1.0 5.0 0.00 0.00 0.00 90 1012.9
20190619131159 60 56 0.0 3.0 0.00 0.00 0.00 90 1012.9
20190619130157 59 75 0.0 0.0 0.00 0.00 0.00 90 1013.1
20190619130000 59 75 0.0 3.0 0.00 0.00 0.00 90 1013.1
20190619124500 58 68 1.0 3.0 0.00 0.00 0.00 90 1013.2
20190619123001 57 66 1.0 3.0 0.00 0.00 0.00 90 1013.2
20190619121500 56 250 0.0 0.0 0.00 0.00 0.00 90 1013.1
20190619121158 56 250 0.0 0.0 0.00 0.00 0.00 90 1013.1
20190619120000 56 250 0.0 0.0 0.00 0.00 0.00 90 1012.9
20190619114500 55 250 0.0 0.0 0.00 0.00 0.00 90 1012.8
20190619114157 55 250 0.0 0.0 0.00 0.00 0.00 90 1012.6
20190619113157 55 250 0.0 0.0 0.00 0.00 0.00 90 1012.6
20190619113001 55 250 0.0 0.0 0.00 0.00 0.00 90 1012.6
20190619111500 55 250 0.0 0.0 0.00 0.00 0.00 90 1012.5
20190619110000 55 250 0.0 0.0 0.00 0.00 0.00 90 1012.5
20190619104500 55 250 0.0 0.0 0.00 0.00 0.00 90 1012.4
20190619104157 55 250 0.0 0.0 0.00 0.00 0.00 90 1012.4
20190619103000 55 250 0.0 0.0 0.00 0.00 0.00 90 1012.6
20190619101500 55 250 0.0 0.0 0.00 0.00 0.00 90 1012.6
20190619100157 55 250 0.0 0.0 0.00 0.00 0.00 90 1012.7
20190619100000 55 250 0.0 0.0 0.00 0.00 0.00 90 1012.7
20190619095157 56 250 0.0 0.0 0.00 0.00 0.00 90 1012.7
20190619094500 56 250 0.0 0.0 0.00 0.00 0.00 90 1012.8
20190619094157 56 250 0.0 0.0 0.00 0.00 0.00 90 1012.8
20190619093158 56 250 0.0 0.0 0.00 0.00 0.00 90 1012.8
20190619093001 56 250 0.0 0.0 0.00 0.00 0.00 90 1012.8
20190619091500 56 250 0.0 0.0 0.00 0.00 0.00 90 1012.8
20190619090157 56 250 0.0 0.0 0.00 0.00 0.00 90 1012.7
20190619090001 56 250 0.0 0.0 0.00 0.00 0.00 90 1012.7
20190619085200 56 250 0.0 0.0 0.00 0.00 0.00 90 1012.7
20190619084500 56 250 0.0 0.0 0.00 0.00 0.00 90 1012.7
20190619083157 57 250 0.0 0.0 0.00 0.00 0.00 90 1012.8
20190619083001 57 250 0.0 0.0 0.00 0.00 0.00 90 1012.8
20190619082159 57 250 0.0 0.0 0.00 0.00 0.00 89 1012.9
20190619081501 57 250 0.0 0.0 0.00 0.00 0.00 89 1012.9
20190619080001 57 250 0.0 0.0 0.00 0.00 0.00 89 1013.0
20190619075158 57 250 0.0 0.0 0.00 0.00 0.00 88 1013.1
20190619074500 57 250 0.0 0.0 0.00 0.00 0.00 88 1013.1
20190619074157 57 250 0.0 0.0 0.00 0.00 0.00 88 1013.2
20190619073001 58 250 0.0 0.0 0.00 0.00 0.00 88 1013.2
20190619071500 58 250 1.0 3.0 0.00 0.00 0.00 88 1013.3
20190619070157 58 205 0.0 0.0 0.00 0.00 0.00 88 1013.6
20190619070001 58 205 0.0 0.0 0.00 0.00 0.00 88 1013.6
20190619064500 59 205 0.0 3.0 0.00 0.00 0.00 87 1013.6
20190619064158 59 205 0.0 3.0 0.00 0.00 0.00 87 1013.7
20190619063157 59 27 0.0 0.0 0.00 0.00 0.00 86 1013.7
20190619063002 59 27 0.0 0.0 0.00 0.00 0.00 86 1013.7
20190619062159 59 27 0.0 0.0 0.00 0.00 0.00 86 1013.7
20190619061501 59 27 0.0 0.0 0.00 0.00 0.00 86 1013.7
20190619061158 59 27 0.0 0.0 0.00 0.00 0.00 86 1013.8
20190619060158 59 27 0.0 0.0 0.00 0.00 0.00 85 1014.0
20190619060001 59 27 0.0 0.0 0.00 0.00 0.00 85 1014.0
20190619054501 60 27 0.0 0.0 0.00 0.00 0.00 83 1014.0
20190619054157 60 27 0.0 0.0 0.00 0.00 0.00 83 1014.0
20190619053158 60 27 0.0 0.0 0.00 0.00 0.00 81 1013.8
20190619053001 60 27 0.0 0.0 0.00 0.00 0.00 81 1013.8
20190619052159 61 27 0.0 0.0 0.00 0.00 0.00 80 1013.9
20190619051500 61 27 0.0 0.0 0.00 0.00 0.00 80 1014.0
20190619051158 61 27 0.0 0.0 0.00 0.00 0.00 79 1014.0
20190619050157 61 27 0.0 0.0 0.00 0.00 0.00 79 1014.0
20190619050001 61 27 0.0 0.0 0.00 0.00 0.00 79 1014.0
20190619045158 62 27 0.0 0.0 0.00 0.00 0.00 78 1014.2
20190619044500 62 27 0.0 0.0 0.00 0.00 0.00 77 1014.3
20190619043002 62 27 0.0 0.0 0.00 0.00 0.00 76 1014.3
20190619042158 63 27 0.0 0.0 0.00 0.00 0.00 74 1014.3
20190619041500 63 27 0.0 0.0 0.00 0.00 0.00 74 1014.2
20190619040157 63 27 0.0 0.0 0.00 0.00 0.00 73 1014.1
20190619040000 63 27 0.0 0.0 0.00 0.00 0.00 73 1014.1
20190619034500 63 27 0.0 0.0 0.00 0.00 0.00 72 1014.0
20190619034158 64 27 0.0 0.0 0.00 0.00 0.00 72 1014.0
20190619033001 64 27 0.0 0.0 0.00 0.00 0.00 70 1013.8
20190619032157 64 27 0.0 0.0 0.00 0.00 0.00 70 1013.7
20190619031500 65 27 0.0 0.0 0.00 0.00 0.00 70 1013.7
20190619030200 65 27 0.0 0.0 0.00 0.00 0.00 68 1013.7
20190619030001 65 27 0.0 0.0 0.00 0.00 0.00 68 1013.7
20190619025904 69 29 1.0 3.0 0.00 0.00 0.00 56 1013.7
20190619025157 66 27 0.0 0.0 0.00 0.00 0.00 67 1013.7
20190619024500 66 27 0.0 0.0 0.00 0.00 0.00 66 1013.7
20190619023158 67 27 0.0 0.0 0.00 0.00 0.00 63 1013.5
20190619023001 67 27 0.0 0.0 0.00 0.00 0.00 63 1013.5
20190619022157 67 27 0.0 0.0 0.00 0.00 0.00 62 1013.4
20190619021501 67 27 0.0 0.0 0.00 0.00 0.00 61 1013.4
20190619020158 68 27 0.0 0.0 0.00 0.00 0.00 60 1013.5
20190619020001 68 27 0.0 0.0 0.00 0.00 0.00 60 1013.5
20190619015158 68 27 0.0 0.0 0.00 0.00 0.00 59 1013.4
20190619014500 68 27 0.0 0.0 0.00 0.00 0.00 58 1013.4
20190619014158 68 27 0.0 0.0 0.00 0.00 0.00 58 1013.4